This is the latest recevied weather packets stored in our database for station/object N0EDB-13. If no packets are shown the sender has not sent any weather packets the latest 10 day(s).
| Time | Temp. | Humidity | Pressure | Rain* | Wind** | Luminosity | Snow |
|---|---|---|---|---|---|---|---|
| 1777380909 | 3.33° C | 89% | 1521.8 hPa | 0.25 mm | - | 18 W/m² | - |
| 1777380608 | 3.33° C | 89% | 1521.4 hPa | 0.25 mm | - | 20 W/m² | - |
| 1777380308 | 3.89° C | 89% | 1520.9 hPa | 0.25 mm | - | 12 W/m² | - |
| 1777380008 | 3.89° C | 88% | 1521 hPa | 0.25 mm | - | 9 W/m² | - |
| 1777379707 | 3.89° C | 88% | 1520.9 hPa | 0.25 mm | - | 4 W/m² | - |
| 1777379406 | 3.89° C | 88% | 1520.9 hPa | 0 mm | - | 3 W/m² | - |
| 1777379105 | 3.89° C | 87% | 1520.9 hPa | 0 mm | - | 1 W/m² | - |
| 1777378804 | 3.89° C | 87% | 1520.6 hPa | 0 mm | - | 1 W/m² | - |
| 1777378503 | 3.89° C | 87% | 1520.3 hPa | 0 mm | - | 1 W/m² | - |
| 1777378202 | 3.89° C | 87% | 1520.2 hPa | 0 mm | - | 1 W/m² | - |
| 1777377901 | 3.89° C | 86% | 1519.9 hPa | 0 mm | - | 1 W/m² | - |
| 1777377601 | 3.89° C | 86% | 1519.7 hPa | 0 mm | - | 1 W/m² | - |
| 1777377300 | 3.89° C | 86% | 1519.6 hPa | 0 mm | - | 0 W/m² | - |
| 1777377000 | 3.89° C | 86% | 1519.6 hPa | 0 mm | - | 0 W/m² | - |
| 1777376699 | 3.89° C | 86% | 1519.4 hPa | 0 mm | - | 0 W/m² | - |
| 1777376398 | 3.89° C | 86% | 1519.2 hPa | 0 mm | - | 0 W/m² | - |
| 1777376097 | 3.89° C | 86% | 1519 hPa | 0 mm | - | 0 W/m² | - |
| 1777375797 | 3.89° C | 86% | 1519 hPa | 0 mm | - | 0 W/m² | - |
| 1777375496 | 3.89° C | 86% | 1519 hPa | 0 mm | - | 0 W/m² | - |
| 1777375195 | 3.89° C | 86% | 1518.9 hPa | 0 mm | - | 0 W/m² | - |
| 1777374894 | 3.89° C | 86% | 1518.9 hPa | 0 mm | - | 0 W/m² | - |
| 1777374593 | 3.89° C | 86% | 1518.9 hPa | 0 mm | - | 0 W/m² | - |
| 1777374293 | 3.89° C | 86% | 1518.8 hPa | 0 mm | - | 0 W/m² | - |
| 1777373992 | 3.89° C | 86% | 1518.6 hPa | 0 mm | - | 0 W/m² | - |
| 1777373691 | 3.89° C | 86% | 1518.3 hPa | 0 mm | - | 0 W/m² | - |
* Rain latest hour (hover to see other rain measurements)
** Current wind speed in m/s (hover to see current wind gust speed)